Погода в Следневе

Россия / Владимирская область     56°25′00″N   38°36′02″E
темп.,
°C
ветер,
м/с
пор.,
м/с
влажн.,
%
обл.,
%
осадки,
мм/ч
давл.,
гПа
погр.,
м
25 июля, вс
вс2500:00+10з11807 0.0 101810
03:00+11з006793 0.0 101910
06:00+12ю2264100 0.0 101944
09:00+15юз2357100 0.0 1020224
12:00+21з243953 0.0 10202163
15:00+18зсз474879 0.0 1020593
18:00+20з244892 0.0 1020436
21:00+17зсз2556100 0.0 1021106
26 июля, пн
пн2600:00+16з2258100 0.0 102234
03:00+15зюз2260100 0.0 102226
06:00+15зюз226294 0.0 102251
09:00+18зюз1360100 0.0 1023168
12:00+23зюз354096 0.0 10231482
15:00+23зюз364487 0.0 10211620
18:00+20з2657100 0.0 1021132
21:00+17зюз227311 0.0 102125
27 июля, вт
вт2700:00+17з246895 0.0 102286
03:00+15зсз22795 0.0 102225
06:00+16сз23755 0.0 102267
09:00+23сз12485 0.0 1021451
12:00+27зсз233432 0.0 10202630
15:00+27зсз243231 0.0 10192566
18:00+26з23437 0.0 1018295
21:00+18зсз25727 0.0 101881
28 июля, ср
ср2800:00+16ссз227622 0.0 101938
03:00+15юз11822 0.0 101813
06:00+16зюз13780 0.0 101773
09:00+23юз12565 0.0 1016618
12:00+27юз2442100 0.0 10141817
15:00+24юз3758100 0.0 1012390
18:00+19зюз51086100 2.2 1012298
21:00+15ююв31096100 2.7 1011402
29 июля, чт
чт2900:00+16юв3998100 0.6 1008330
03:00+16ююв2699100 0.6 1006342
06:00+16ююв2599100 0.9 1005295
09:00+17зюз3797100 2.0 1004550
12:00+18з4896100 0.7 1005646
15:00+20зсз599153 2.4 1005870
18:00+22сз310765 0.6 10051113
21:00+19з118576 0.9 100515